sat.trackr.live / text

‹ back to catalog

SITRO-AIS 27

NORAD 59068 · 2024-039T

PAYLOAD ACTIVE UNKNOWN

§ Identity

Operator
Country
CIS
Launch date
2024-02-29
Launch site
VOSTO
Launch vehicle
Mass (kg)
RCS (m²)

Purposes: tech_demo

External: N2YO · Heavens-Above · Gunter

§ Orbital elements

Epoch: 2026-05-25T04:02:32.129088Z

Period
96.41 min
Inclination
95.3921°
Eccentricity
0.0146113
Mean motion
14.93555860 rev/d
Perigee alt
485.1 km
Apogee alt
688.6 km
Semi-major
6,965.0 km
B*
2.6984e-4
RAAN
219.4394°
Arg perigee
48.4664°
Mean anomaly
312.8987°
Rev number
12,130

§ Raw data

SITRO-AIS 271 59068U 24039T   26145.16842742  .00003478  00000+0  26984-3 0  99912 59068  95.3921 219.4394 0146113  48.4664 312.8987 14.93555860121300

JSON: /api/v1/satellites/59068 · /tle

For live sub-satellite position, see the globe view (requires WebGL).

§ Visibility from observer

Set your observer location to see the next 7 days of passes ≥ 10°. The values pass through the URL so the page stays shareable.

No JS? Fill the form by hand. The geolocation button needs JavaScript.

§ Radio — SatNOGS DB

ModeDescriptionDownlinkUplink
GMSK USP Mode U - GMSK2k4 USP 401.078 MHz

1 transmitter · refreshed weekly from db.satnogs.org